Wind_Speed
17 13 11 11 12 12 11 14 12 11 15 22 26 25 21 20 18 18 25 34 42 39 44 51 56 59 58 60 62 61 60 58 48 42 36 28 16 9 7 3 12 18 14 20 11 11 15 24 24 27 27 27 26 25
20 20 17 12 14 12 11 12 13 14 18 22 27 29 24 21 17 18 22 32 39 37 42 47 52 57 58 57 60 61 63 61 57 49 41 32 22 14 11 9 15 13 15 13 11 7 10 15 18 22 20 18 20 27
24 25 18 13 14 14 12 15 17 16 19 23 25 27 29 25 20 22 20 31 36 36 36 43 47 53 54 55 55 59 62 68 65 58 52 42 32 25 22 20 10 18 8 15 13 11 11 11 11 14 17 13 12 14
26 26 20 20 16 15 17 17 18 20 23 23 24 26 27 29 24 21 19 24 34 31 34 37 42 48 51 52 52 53 56 60 64 65 61 54 44 39 32 29 26 23 15 10 15 4 13 6 6 4 3 11 9 10
30 32 27 25 24 19 16 17 19 21 23 24 24 24 27 27 28 26 23 23 29 25 28 30 37 42 48 50 50 50 52 57 60 60 65 67 63 62 52 44 36 29 23 19 17 13 9 7 1 8 6 10 7 8
36 37 34 33 24 22 18 18 18 20 24 23 22 23 25 25 26 28 25 22 25 27 23 26 30 37 43 45 47 49 51 53 55 57 59 61 63 63 63 60 56 53 48 40 28 20 18 11 14 10 11 12 15 14
41 41 36 38 34 31 29 26 28 26 23 24 22 22 22 25 26 27 29 26 25 24 24 24 25 29 36 40 43 45 47 48 49 51 55 57 59 60 61 61 62 63 64 63 59 53 47 39 31 23 15 14 17 18
45 47 47 48 44 34 34 33 32 29 25 24 22 22 23 23 25 26 26 27 29 26 23 22 24 24 26 32 36 38 43 44 45 46 47 49 51 54 55 56 56 58 59 59 58 58 58 58 57 54 49 43 37 30
52 52 51 51 50 44 38 36 34 33 28 23 23 24 25 23 23 23 24 27 27 27 25 24 23 23 23 22 26 31 33 38 39 41 43 45 46 47 49 49 50 51 51 52 52 52 53 52 52 52 51 51 51 52
61 63 62 59 53 52 48 42 38 37 31 27 25 27 26 25 25 25 25 26 24 24 28 25 23 24 23 22 19 23 27 31 33 35 38 40 41 41 42 44 45 46 46 46 46 46 46 46 47 47 48 49 48 48
68 66 68 64 59 53 52 49 43 42 37 32 28 28 28 28 27 28 28 25 22 22 25 28 25 21 22 20 20 19 20 23 26 29 31 32 35 38 40 39 40 40 41 41 42 43 44 45 43 42 42 42 43 44
71 70 75 74 69 62 65 57 54 48 46 41 34 33 30 30 29 29 30 27 24 21 23 22 23 22 22 20 18 20 19 18 20 21 24 27 27 29 31 34 37 38 38 38 38 38 40 42 44 45 46 46 46 45
85 76 80 81 78 73 75 65 65 54 51 48 42 40 38 34 33 36 34 30 28 26 21 20 21 18 22 25 22 19 18 19 18 17 17 21 23 23 25 27 29 31 32 33 35 35 38 39 40 42 44 43 44 45
97 92 84 84 88 82 80 72 69 64 60 55 49 44 39 39 39 41 36 33 30 27 27 24 23 23 22 22 21 24 25 25 25 19 16 16 18 20 20 21 23 26 27 28 29 30 31 31 33 35 39 40 41 42
101 100 98 88 89 89 86 81 74 68 70 62 56 51 46 45 45 41 41 36 33 32 31 30 24 22 22 22 21 23 24 25 26 26 24 20 17 18 19 20 19 17 21 24 25 25 26 28 31 33 33 33 37 38
110 105 102 97 91 89 92 88 85 78 78 69 61 54 55 53 51 47 44 45 40 37 36 33 30 27 24 22 23 25 26 27 27 27 26 27 24 20 17 20 22 16 16 19 22 24 25 26 28 31 35 37 36 35
102 101 103 104 100 99 98 93 90 85 79 68 65 63 61 60 58 54 49 47 42 42 40 37 33 30 32 22 21 22 26 28 28 28 25 27 28 27 25 23 25 25 23 23 23 24 26 29 30 31 33 32 34 34
116 113 107 109 108 108 105 98 98 90 85 79 69 66 69 68 65 61 55 53 46 46 45 43 38 35 37 29 30 29 29 28 30 28 28 25 27 28 29 29 27 26 27 27 25 23 25 27 32 36 38 37 36 36
116 115 117 117 115 115 114 108 104 95 90 84 76 73 75 74 73 69 63 59 56 51 47 44 43 44 35 31 34 33 32 28 30 30 32 30 28 29 28 29 26 27 30 30 28 26 29 30 36 37 37 37 38 39
127 120 119 121 120 120 122 119 110 101 96 89 90 82 79 77 78 75 70 65 61 52 44 49 54 49 39 37 39 37 38 34 33 33 30 30 32 31 31 30 30 33 33 33 32 31 32 36 37 38 39 39 38 38
130 129 128 125 127 130 126 121 116 109 102 100 94 91 88 85 83 81 77 69 66 52 51 55 60 54 43 41 44 43 40 39 38 34 33 37 37 37 37 37 37 38 35 33 34 34 39 42 41 39 40 42 42 43
120 133 137 133 129 132 128 125 115 107 103 99 93 93 89 87 81 82 79 72 64 54 56 59 60 61 56 46 43 47 43 41 42 42 39 40 42 41 41 39 40 42 40 40 41 39 42 44 46 48 49 47 44 44
95 123 142 138 141 137 127 121 119 114 107 102 97 95 90 80 76 84 79 64 62 64 64 68 67 62 57 58 52 46 50 49 43 46 45 41 41 42 42 43 45 45 46 46 46 46 48 51 51 50 50 48 49 52
95 107 123 144 142 137 131 127 119 115 110 108 100 92 87 84 86 85 73 66 68 61 60 64 67 67 64 61 60 61 52 53 46 44 51 52 51 50 46 47 50 50 51 52 51 50 53 53 57 56 56 58 56 57
94 100 106 121 133 132 129 127 124 120 108 107 105 101 94 86 88 88 74 71 71 69 64 67 66 68 68 65 65 62 59 56 58 58 58 56 52 51 57 49 53 54 52 50 54 55 57 58 60 57 58 63 61 61
86 91 91 97 115 117 126 129 124 118 113 112 108 102 97 94 94 85 76 76 75 74 73 77 72 74 77 71 69 66 70 64 54 55 61 55 53 56 55 54 57 58 55 55 56 58 60 60 60 61 61 65 65 64
77 81 82 87 93 103 117 129 131 129 125 119 107 105 104 97 90 80 80 82 80 81 82 83 77 74 76 75 76 72 66 67 60 59 63 58 57 57 56 60 62 65 63 61 62 62 63 61 63 64 66 71 65 64
67 73 72 78 85 93 111 130 135 135 127 119 115 109 102 94 86 87 89 87 87 88 91 87 80 78 79 76 76 78 77 72 71 63 66 65 63 61 60 62 64 66 67 66 67 66 66 66 65 67 69 67 69 68
65 64 64 75 80 84 94 117 130 133 128 120 114 113 103 101 98 96 100 100 99 98 96 90 88 85 81 82 82 80 79 77 74 73 75 71 67 68 67 67 69 67 69 73 72 69 68 69 70 72 70 72 73 72
60 63 60 65 76 80 87 98 123 130 125 122 118 115 109 108 108 104 106 105 101 101 102 95 90 88 86 86 87 83 83 84 79 79 82 76 75 72 72 75 76 78 78 74 74 75 73 72 71 72 72 73 74 78
62 58 54 59 67 75 82 96 113 135 139 134 132 126 121 120 113 109 106 104 102 99 97 95 92 92 88 87 91 89 89 87 84 84 85 85 84 79 80 81 82 81 79 79 77 78 79 77 74 75 75 77 80 83
57 55 55 56 60 70 76 84 97 113 131 141 146 143 138 129 120 120 114 109 103 103 104 99 98 98 95 97 97 95 93 92 89 87 89 90 88 88 87 86 83 84 86 82 80 81 83 84 82 84 81 81 84 89
55 54 55 56 58 66 72 80 86 97 108 117 122 131 136 134 133 121 120 121 115 109 110 106 102 101 98 98 96 95 93 93 92 92 91 93 97 93 90 92 90 87 88 89 87 85 87 86 85 86 86 88 89 91
Wind_Direction
277 281 299 311 317 336 2 9 16 9 0 354 360 5 360 356 347 348 352 353 354 1 9 10 11 14 19 23 28 25 30 32 33 32 30 28 23 17 7 94 106 89 105 153 132 111 106 102 98 93 90 89 84 78
267 265 271 293 307 311 328 334 344 346 340 345 354 0 6 356 355 353 346 348 354 3 11 11 14 17 18 24 28 32 35 34 34 35 33 29 34 48 49 5 46 99 120 143 176 130 124 133 115 107 91 85 91 82
262 263 262 276 291 294 304 311 318 323 332 338 348 356 7 4 355 353 351 351 353 358 8 13 16 19 20 23 29 34 37 40 39 37 35 37 43 56 67 60 15 2 13 76 143 168 164 168 132 127 106 93 92 85
254 257 254 271 279 285 296 302 302 312 320 326 340 353 0 6 355 347 353 346 345 357 3 12 14 18 19 23 27 33 39 43 45 46 43 43 47 54 58 60 56 45 42 4 11 98 172 169 127 144 109 116 115 82
246 252 254 261 279 275 285 296 301 308 313 322 327 336 350 359 3 356 344 341 341 353 359 9 15 15 15 20 26 32 37 42 44 47 51 52 50 53 54 56 56 54 52 42 33 22 42 32 334 8 308 3 7 32
248 249 256 265 268 268 276 285 293 299 304 313 323 328 339 345 356 2 356 342 343 349 355 7 16 13 13 18 25 31 36 41 42 44 45 49 55 60 62 62 62 61 59 56 52 45 30 16 349 357 16 349 355 351
246 245 250 258 263 267 270 274 285 298 295 300 310 319 331 342 344 348 358 355 351 353 353 0 10 16 12 14 22 29 33 38 43 44 46 48 49 51 54 58 61 63 65 64 63 62 59 57 53 46 25 360 343 333
241 248 251 257 261 265 262 269 280 290 289 292 303 312 316 326 338 340 347 354 355 351 347 353 355 5 12 10 16 24 29 33 38 41 44 48 47 49 51 52 53 56 60 63 64 64 63 62 63 62 61 58 53 47
243 247 248 252 256 256 259 262 271 279 281 281 292 298 308 318 325 332 337 344 349 351 350 345 342 348 358 7 10 15 20 26 34 40 42 44 48 49 50 51 52 53 54 55 55 58 59 61 61 61 63 62 61 60
251 250 246 248 250 255 260 259 262 272 272 270 279 291 300 305 317 318 325 332 340 345 356 356 347 336 339 352 2 11 13 19 21 30 39 44 43 46 48 49 49 51 53 54 56 55 53 54 56 57 57 58 58 58
247 251 243 242 246 249 253 255 260 264 267 263 269 282 288 291 303 307 312 324 330 333 337 346 354 348 339 338 346 357 6 12 12 19 25 30 36 41 43 43 44 47 47 48 51 52 53 53 52 52 51 51 51 52
242 244 243 241 246 251 258 255 255 255 261 262 263 269 277 282 290 297 304 306 318 325 332 340 350 359 360 350 335 339 353 358 4 4 10 19 25 29 34 37 39 40 40 42 43 44 45 45 47 47 48 47 47 46
242 244 244 243 246 254 256 254 253 250 254 256 258 263 265 272 281 285 294 297 303 308 312 321 332 346 357 3 4 359 348 348 350 350 352 1 8 17 24 26 30 31 30 31 34 36 35 37 37 36 35 35 35 35
246 244 240 245 247 251 253 250 248 252 249 250 256 257 263 267 269 277 287 288 290 297 302 308 312 319 324 333 345 351 355 356 355 340 333 337 349 355 359 10 15 14 19 21 18 17 19 22 26 27 26 24 24 23
241 242 246 244 244 246 247 249 248 254 249 249 253 253 260 264 264 272 279 280 284 290 289 299 307 309 321 331 334 330 332 337 346 349 347 337 327 338 342 346 349 360 358 358 2 5 2 2 6 5 4 7 9 10
240 242 242 242 243 243 245 248 247 250 246 248 249 255 254 260 262 265 270 279 273 282 285 289 296 302 308 315 323 325 327 325 330 336 346 354 346 329 314 319 327 334 333 336 339 342 344 347 348 350 355 0 357 355
234 235 235 237 239 241 238 244 243 245 245 238 250 253 249 254 261 261 265 272 268 273 279 283 287 291 298 311 311 317 323 323 328 335 330 329 334 345 349 331 314 319 324 323 322 321 326 330 337 339 341 344 350 348
233 232 232 234 236 235 236 238 243 244 241 244 247 244 245 252 257 257 260 264 262 267 274 280 283 284 287 295 303 305 300 312 321 319 326 329 328 331 332 332 339 335 324 322 325 320 325 327 328 330 331 330 327 328
238 234 231 231 234 236 236 238 240 241 237 244 237 242 245 250 254 257 257 259 260 261 265 274 284 278 283 288 295 297 301 303 304 312 317 315 322 328 327 328 328 334 333 330 327 319 316 315 319 322 324 324 321 320
234 236 234 232 231 234 235 237 235 237 238 234 238 239 243 244 250 250 250 253 255 257 264 269 268 271 275 279 285 293 293 302 302 303 308 309 315 316 322 320 322 326 324 323 328 326 321 319 318 318 317 317 320 318
233 232 233 232 234 234 236 232 234 238 236 235 240 241 238 241 248 248 250 248 251 256 254 261 264 265 271 272 274 281 293 292 295 300 302 302 305 313 312 313 317 319 324 327 329 321 319 322 325 324 319 315 314 314
233 230 233 233 231 231 233 236 236 234 234 233 235 236 235 241 245 248 245 245 248 251 249 257 262 263 263 267 273 273 279 289 287 290 297 298 300 301 306 313 310 311 315 317 318 318 321 323 325 322 320 323 318 315
230 231 230 231 234 235 235 231 232 232 231 233 238 235 237 235 243 241 241 244 245 249 252 254 257 260 258 260 270 275 276 276 284 283 283 294 295 298 306 306 306 314 318 315 316 315 322 325 325 325 323 322 323 321
228 227 227 230 232 234 234 232 230 229 234 233 233 234 233 240 238 236 247 246 238 243 253 253 256 258 260 259 263 264 275 271 275 281 281 281 287 295 302 305 305 309 311 316 315 313 316 319 324 322 322 322 318 316
231 231 230 227 231 232 233 232 230 231 230 232 234 231 236 232 233 238 252 242 238 245 249 249 257 261 258 257 259 262 268 277 269 270 286 287 282 291 291 296 301 303 305 309 309 310 312 314 315 316 319 319 324 323
234 235 234 231 229 232 230 232 232 229 229 230 230 232 232 236 237 240 239 238 240 247 248 246 255 256 255 258 260 263 264 275 273 268 279 285 283 281 286 286 295 301 304 304 305 307 308 308 309 311 317 319 318 321
239 239 237 235 233 231 229 228 230 229 229 229 227 230 234 233 233 235 233 235 243 250 247 244 251 251 252 257 260 260 261 272 274 270 275 281 281 280 282 284 288 293 300 303 303 302 303 305 306 307 309 313 314 316
243 243 240 237 235 231 227 226 227 229 231 228 231 230 230 232 230 231 233 239 244 248 245 244 250 252 250 256 262 262 263 265 269 270 275 279 279 275 279 282 284 288 295 300 303 300 299 301 303 303 305 309 312 312
241 243 240 235 234 232 228 225 226 227 227 228 229 230 230 228 227 231 233 234 239 242 241 244 250 251 249 257 260 258 261 262 261 267 275 275 280 280 277 280 283 284 288 294 299 299 298 298 299 302 301 302 304 308
239 240 238 233 233 233 230 228 225 221 223 228 229 230 230 231 231 232 235 235 239 243 243 246 248 249 250 257 258 257 261 263 263 269 274 276 282 283 275 278 281 284 286 290 294 298 298 297 297 299 300 301 302 305
237 237 233 230 230 231 229 227 224 222 222 223 228 230 233 234 235 235 234 236 238 239 243 245 248 248 251 256 255 256 260 262 264 271 274 278 283 279 276 277 280 284 285 288 291 294 295 293 294 296 298 297 299 302
235 236 233 227 225 227 227 225 224 223 224 226 227 230 234 234 238 238 238 238 239 243 241 241 245 246 250 255 255 257 260 262 264 267 271 277 278 279 279 277 277 283 286 285 287 290 292 291 292 293 294 294 295 298
235 231 229 226 221 222 224 225 224 224 225 224 226 229 229 233 236 239 241 242 240 239 239 242 245 245 248 249 253 257 259 262 265 267 268 272 275 274 275 276 277 280 282 282 284 287 290 290 291 292 290 291 292 294
Height
10589 10589 10590 10590 10590 10590 10589 10588 10587 10587 10585 10583 10579 10574 10570 10567 10563 10560 10556 10550 10544 10536 10527 10517 10505 10492 10479 10464 10452 10436 10422 10410 10401 10393 10387 10381 10377 10374 10372 10370 10368 10368 10368 10371 10370 10370 10370 10369 10368 10366 10366 10366 10367 10367
10587 10588 10588 10588 10589 10589 10589 10589 10587 10586 10585 10582 10579 10574 10569 10566 10563 10560 10556 10551 10544 10538 10530 10522 10512 10499 10486 10475 10462 10449 10436 10424 10412 10403 10394 10385 10378 10374 10373 10373 10371 10368 10370 10371 10374 10374 10374 10373 10372 10372 10372 10372 10372 10371
10584 10585 10586 10586 10587 10587 10587 10587 10586 10585 10583 10581 10578 10574 10570 10566 10563 10560 10556 10552 10546 10541 10534 10527 10519 10509 10499 10487 10476 10462 10448 10435 10423 10414 10403 10393 10384 10379 10378 10376 10377 10375 10374 10371 10373 10375 10376 10377 10376 10376 10375 10377 10377 10376
10581 10582 10582 10583 10584 10584 10584 10584 10584 10583 10582 10580 10578 10575 10571 10567 10564 10561 10557 10553 10548 10543 10538 10531 10524 10517 10508 10498 10487 10476 10463 10451 10440 10428 10417 10407 10396 10390 10385 10382 10381 10380 10381 10381 10380 10378 10378 10380 10380 10380 10380 10379 10379 10378
10577 10578 10578 10580 10580 10581 10581 10581 10581 10580 10580 10578 10577 10574 10571 10568 10564 10561 10557 10554 10549 10545 10540 10535 10528 10522 10515 10507 10497 10487 10475 10463 10455 10445 10435 10423 10411 10400 10398 10393 10389 10388 10387 10386 10385 10385 10384 10384 10385 10385 10385 10385 10384 10383
10570 10572 10573 10575 10576 10577 10577 10577 10577 10577 10577 10576 10575 10573 10570 10568 10564 10561 10558 10554 10550 10546 10542 10538 10532 10527 10521 10514 10506 10495 10485 10477 10468 10460 10451 10441 10433 10424 10418 10412 10405 10400 10397 10393 10392 10390 10389 10389 10390 10389 10389 10388 10387 10387
10562 10565 10566 10567 10570 10572 10572 10573 10573 10573 10573 10573 10572 10571 10569 10567 10564 10560 10557 10554 10550 10546 10542 10539 10535 10531 10525 10519 10513 10505 10497 10488 10481 10473 10464 10457 10449 10442 10435 10429 10421 10416 10412 10408 10403 10401 10398 10396 10393 10392 10391 10390 10389 10388
10553 10555 10557 10559 10562 10565 10565 10566 10567 10568 10569 10569 10569 10568 10567 10565 10563 10559 10556 10553 10550 10546 10543 10539 10536 10533 10529 10524 10519 10513 10506 10498 10491 10484 10477 10469 10463 10457 10450 10445 10439 10432 10427 10423 10420 10415 10411 10408 10404 10400 10398 10396 10393 10390
10541 10544 10546 10549 10552 10555 10558 10559 10560 10562 10563 10564 10565 10564 10563 10563 10561 10558 10555 10553 10550 10546 10542 10539 10535 10533 10530 10526 10522 10518 10512 10506 10500 10494 10487 10481 10475 10468 10463 10457 10453 10447 10443 10438 10433 10428 10424 10420 10417 10414 10411 10407 10403 10399
10527 10532 10535 10537 10540 10543 10547 10550 10552 10554 10556 10557 10559 10559 10559 10559 10558 10556 10554 10552 10549 10546 10543 10539 10535 10531 10529 10526 10523 10520 10516 10511 10506 10501 10495 10490 10484 10479 10473 10468 10464 10459 10455 10451 10447 10442 10438 10434 10430 10426 10422 10418 10415 10411
10511 10516 10521 10524 10527 10531 10535 10539 10542 10544 10547 10549 10551 10552 10552 10553 10553 10552 10551 10550 10547 10545 10542 10539 10535 10532 10528 10526 10523 10520 10517 10514 10510 10506 10501 10496 10491 10486 10481 10477 10473 10468 10464 10460 10456 10452 10449 10444 10440 10437 10433 10429 10424 10419
10494 10499 10504 10508 10513 10517 10521 10526 10529 10532 10536 10540 10542 10544 10545 10547 10548 10547 10546 10546 10545 10543 10541 10538 10535 10532 10529 10526 10523 10520 10518 10514 10511 10508 10504 10500 10496 10491 10488 10483 10479 10475 10471 10467 10463 10459 10456 10451 10448 10444 10440 10435 10431 10427
10472 10478 10484 10490 10495 10500 10506 10511 10515 10519 10525 10527 10531 10534 10537 10539 10540 10540 10541 10540 10540 10539 10538 10536 10534 10532 10529 10526 10522 10520 10517 10515 10512 10508 10505 10502 10498 10494 10491 10487 10483 10480 10476 10473 10469 10465 10461 10457 10453 10449 10444 10440 10436 10432
10446 10455 10462 10470 10474 10481 10487 10492 10497 10504 10509 10513 10519 10524 10527 10531 10531 10531 10534 10533 10534 10533 10533 10532 10530 10529 10527 10525 10522 10519 10516 10514 10511 10507 10504 10502 10499 10496 10493 10489 10486 10482 10479 10476 10472 10468 10465 10462 10458 10454 10450 10446 10441 10436
10417 10427 10434 10444 10453 10459 10464 10470 10477 10485 10492 10499 10506 10512 10520 10517 10519 10522 10525 10525 10526 10526 10526 10526 10526 10525 10523 10521 10519 10516 10513 10511 10509 10506 10503 10500 10498 10496 10493 10490 10488 10485 10481 10477 10473 10470 10466 10462 10459 10455 10452 10448 10444 10439
10389 10394 10407 10418 10427 10434 10440 10447 10456 10463 10472 10482 10495 10504 10503 10504 10506 10511 10513 10515 10516 10518 10518 10519 10520 10519 10518 10517 10515 10513 10510 10507 10505 10503 10502 10499 10496 10493 10491 10489 10486 10484 10481 10477 10473 10469 10466 10462 10458 10454 10450 10446 10442 10437
10350 10370 10385 10390 10395 10403 10411 10420 10427 10439 10450 10469 10482 10485 10486 10487 10491 10498 10501 10503 10506 10508 10509 10510 10511 10513 10512 10511 10510 10507 10506 10503 10502 10499 10497 10496 10494 10492 10489 10486 10483 10480 10478 10475 10472 10468 10464 10461 10457 10453 10449 10444 10440 10435
10324 10339 10352 10359 10364 10369 10379 10389 10398 10413 10436 10454 10463 10466 10468 10470 10474 10482 10486 10490 10495 10496 10499 10500 10502 10502 10503 10504 10503 10501 10499 10498 10496 10494 10492 10490 10488 10486 10484 10482 10479 10477 10474 10471 10468 10464 10461 10457 10453 10449 10444 10440 10436 10431
10285 10305 10320 10325 10334 10343 10350 10361 10371 10393 10415 10428 10438 10444 10446 10453 10456 10462 10471 10475 10479 10485 10489 10491 10492 10488 10493 10495 10494 10493 10491 10491 10489 10488 10486 10483 10481 10479 10477 10475 10473 10471 10468 10465 10462 10459 10456 10452 10448 10444 10439 10435 10430 10426
10251 10268 10284 10292 10301 10304 10314 10328 10343 10363 10387 10402 10411 10422 10424 10432 10435 10442 10449 10458 10464 10473 10480 10482 10474 10476 10482 10485 10484 10484 10482 10482 10481 10479 10479 10476 10474 10473 10471 10469 10466 10464 10461 10459 10457 10453 10449 10445 10442 10437 10432 10428 10424 10420
10215 10234 10239 10250 10256 10266 10277 10294 10317 10342 10358 10371 10388 10397 10405 10407 10413 10422 10431 10440 10449 10463 10467 10463 10458 10464 10470 10473 10473 10472 10472 10473 10470 10470 10470 10468 10466 10464 10463 10461 10458 10455 10454 10452 10449 10445 10441 10438 10434 10430 10426 10421 10416 10410
10185 10190 10196 10209 10216 10229 10244 10267 10295 10316 10327 10347 10358 10371 10380 10387 10396 10402 10409 10421 10438 10448 10450 10444 10444 10447 10456 10460 10460 10461 10461 10461 10461 10459 10459 10458 10456 10455 10453 10452 10448 10446 10446 10443 10440 10435 10432 10428 10424 10419 10415 10410 10406 10402
10138 10147 10155 10172 10176 10189 10215 10242 10261 10282 10300 10318 10331 10346 10360 10367 10377 10378 10388 10409 10422 10428 10429 10427 10428 10432 10439 10443 10449 10447 10446 10448 10450 10447 10447 10449 10447 10444 10443 10440 10437 10436 10434 10431 10428 10424 10421 10418 10414 10410 10405 10400 10395 10390
10096 10099 10113 10129 10135 10155 10188 10213 10239 10258 10275 10290 10305 10321 10338 10345 10349 10356 10379 10389 10402 10406 10410 10409 10411 10414 10421 10426 10430 10429 10431 10435 10439 10437 10434 10436 10434 10432 10433 10428 10425 10425 10424 10421 10417 10413 10410 10406 10402 10397 10393 10389 10384 10379
10063 10072 10083 10098 10109 10131 10160 10187 10208 10225 10254 10270 10278 10291 10308 10318 10329 10345 10366 10373 10378 10387 10392 10390 10393 10395 10398 10404 10410 10413 10412 10417 10422 10426 10417 10419 10424 10422 10419 10417 10412 10410 10412 10410 10404 10402 10398 10394 10390 10386 10382 10377 10371 10365
10042 10051 10064 10080 10091 10112 10140 10161 10185 10215 10226 10230 10247 10269 10281 10294 10308 10328 10344 10349 10355 10364 10369 10369 10371 10372 10377 10384 10386 10393 10393 10398 10405 10410 10402 10404 10408 10406 10405 10403 10400 10395 10398 10396 10392 10388 10385 10382 10379 10374 10368 10364 10360 10355
10030 10039 10052 10066 10078 10099 10123 10142 10160 10170 10181 10201 10229 10245 10255 10269 10291 10312 10320 10325 10331 10335 10339 10345 10351 10354 10358 10363 10366 10370 10373 10379 10385 10388 10386 10387 10390 10390 10391 10389 10386 10382 10381 10380 10378 10375 10371 10367 10364 10361 10356 10351 10347 10343
10022 10024 10039 10055 10066 10082 10100 10117 10128 10134 10153 10186 10208 10221 10238 10261 10283 10290 10294 10299 10302 10307 10312 10319 10328 10335 10341 10344 10345 10348 10352 10356 10361 10366 10369 10368 10368 10372 10373 10373 10370 10366 10365 10363 10361 10358 10355 10353 10350 10346 10342 10337 10332 10329
10000 10012 10024 10033 10046 10056 10070 10080 10096 10121 10151 10173 10187 10201 10221 10235 10245 10254 10260 10263 10269 10277 10286 10295 10303 10312 10318 10322 10324 10326 10328 10332 10339 10344 10348 10348 10349 10351 10354 10354 10350 10349 10347 10345 10343 10341 10338 10336 10334 10330 10326 10322 10317 10313
9984 9988 10000 10015 10023 10034 10049 10066 10094 10121 10139 10150 10160 10171 10185 10202 10214 10223 10232 10241 10250 10256 10264 10275 10285 10292 10297 10300 10302 10305 10307 10309 10314 10320 10325 10328 10331 10333 10332 10330 10329 10328 10326 10325 10324 10323 10320 10317 10314 10311 10307 10303 10299 10294
9961 9969 9982 9992 10005 10018 10035 10049 10068 10086 10103 10114 10130 10145 10160 10169 10179 10196 10209 10219 10228 10239 10250 10257 10263 10269 10273 10275 10278 10282 10287 10290 10293 10298 10302 10306 10309 10309 10308 10307 10306 10305 10304 10304 10303 10300 10299 10297 10294 10291 10288 10283 10278 10274
9945 9954 9962 9972 9986 9998 10012 10026 10040 10054 10071 10089 10106 10118 10133 10144 10164 10179 10189 10193 10207 10220 10228 10232 10241 10243 10244 10248 10254 10260 10267 10271 10275 10276 10277 10280 10282 10283 10284 10284 10284 10284 10283 10281 10279 10277 10276 10275 10273 10271 10267 10262 10257 10253
9930 9936 9942 9953 9966 9976 9987 10000 10016 10030 10045 10062 10078 10093 10103 10120 10141 10156 10160 10174 10185 10191 10197 10201 10208 10215 10224 10232 10236 10241 10248 10251 10252 10253 10253 10252 10254 10256 10258 10259 10261 10260 10258 10256 10255 10253 10252 10251 10249 10246 10242 10238 10234 10230